Location: Zagreb
(45.8000°N, 16.0000°E)
Time: 20:00:51
(UTC+02:00)

SR - Pass Details

Date: 17 August 2020
Orbit: 583 x 873 km, 66.7° (Epoch: 28 September)

Event Time Altitude Azimuth Distance (km) Brightness Sun altitude
Rises 07:07:34 0° 307° (NW) 2,861 ? 10.8°
Reaches altitude 10° 07:11:03 10° 277° (W) 1,996 ? 11.4°
Maximum altitude 07:12:53 12° 253° (WSW) 1,867 ? 11.7°
Drops below altitude 10° 07:14:44 10° 229° (SW) 2,048 ? 12.0°
Sets 07:18:26 0° 200° (SSW) 3,023 ? 12.6°
